BEIDOU-3 M17 (C36)

Last updated on Sat Aug 15 2026 00:03:26 GMT+0000 (Coordinated Universal Time)

1 43706U 18093A 26225.48605559 .00000004 00000+0 00000+0 0 9992 2 43706 54.1690 180.3533 0009562 298.1183 234.9401 1.86228298 52606
UTC large
Height (km)
Speed (km/s)
/
Latitude / Longitude
Inclination (degrees)
Orbital Period (minutes)
Azimuth
Elevation
Range (km)
Doppler Factor

Next 0 passes for location: London (51.5072 / 0.1276)

No passes found over London.
BEIDOU-3 M17 (C36)